Time,TemperatureF,DewpointF,PressureIn,WindDirection,WindDirectionDegrees,WindSpeedMPH,WindSpeedGustMPH,Humidity,HourlyPrecipIn,Conditions,Clouds,dailyrainin,SolarRadiationWatts/m^2,SoftwareType,DateUTC
2013-05-01 00:11:00,31.0,31.0,-100.00,NNW,337,0.0,5.0,100,0.00,,,0.01,0.000000,,2013-05-01 08:11:00,
2013-05-01 00:21:00,31.0,31.0,-100.00,NNW,337,0.0,5.0,100,0.00,,,0.01,0.000000,,2013-05-01 08:21:00,
2013-05-01 00:31:00,31.0,31.0,-100.00,NNW,337,0.0,5.0,100,0.00,,,0.01,0.000000,,2013-05-01 08:31:00,
2013-05-01 00:42:00,31.0,31.0,-100.00,NNW,337,0.0,5.0,100,0.00,,,0.01,0.000000,,2013-05-01 08:42:00,
2013-05-01 00:52:00,31.0,31.0,-100.00,NNW,337,0.0,5.0,100,0.00,,,0.01,0.000000,,2013-05-01 08:52:00,
2013-05-01 01:11:00,31.0,31.0,-100.00,NNE,26,1.0,5.0,100,0.00,,,0.01,0.000000,,2013-05-01 09:11:00,
2013-05-01 01:21:00,31.0,31.0,-100.00,NNE,26,1.0,5.0,100,0.00,,,0.01,0.000000,,2013-05-01 09:21:00,
2013-05-01 01:33:00,31.0,31.0,-100.00,NNE,26,1.0,5.0,100,0.00,,,0.01,0.000000,,2013-05-01 09:33:00,
2013-05-01 01:42:00,31.0,31.0,-100.00,NNE,26,1.0,5.0,100,0.00,,,0.01,0.000000,,2013-05-01 09:42:00,
2013-05-01 01:52:00,31.0,31.0,-100.00,NNE,26,1.0,5.0,100,0.00,,,0.01,0.000000,,2013-05-01 09:52:00,
2013-05-01 02:22:00,34.0,26.0,-100.00,NE,38,2.0,8.0,72,0.00,,,0.01,0.000000,,2013-05-01 10:22:00,
2013-05-01 02:33:00,34.0,26.0,-100.00,NE,38,2.0,8.0,72,0.00,,,0.01,0.000000,,2013-05-01 10:33:00,
2013-05-01 02:42:00,34.0,26.0,-100.00,NE,38,2.0,8.0,72,0.00,,,0.01,0.000000,,2013-05-01 10:42:00,
2013-05-01 02:52:00,34.0,26.0,-100.00,NE,38,2.0,8.0,72,0.00,,,0.01,0.000000,,2013-05-01 10:52:00,
2013-05-01 03:11:00,33.0,23.0,-100.00,NE,35,2.0,6.0,67,0.00,,,0.01,0.000000,,2013-05-01 11:11:00,
2013-05-01 03:22:00,33.0,23.0,-100.00,NE,35,2.0,6.0,67,0.00,,,0.01,0.000000,,2013-05-01 11:22:00,
2013-05-01 03:32:00,33.0,23.0,-100.00,NE,35,2.0,6.0,67,0.00,,,0.01,0.000000,,2013-05-01 11:32:00,
2013-05-01 03:42:00,33.0,23.0,-100.00,NE,35,2.0,6.0,67,0.00,,,0.01,0.000000,,2013-05-01 11:42:00,
2013-05-01 03:51:00,33.0,23.0,-100.00,NE,35,2.0,6.0,67,0.00,,,0.01,0.000000,,2013-05-01 11:51:00,
2013-05-01 04:11:00,32.0,23.0,-100.00,NNE,29,3.0,6.0,68,0.00,,,0.01,0.000000,,2013-05-01 12:11:00,
2013-05-01 04:21:00,32.0,23.0,-100.00,NNE,29,3.0,6.0,68,0.00,,,0.01,0.000000,,2013-05-01 12:21:00,
2013-05-01 04:31:00,32.0,23.0,-100.00,NNE,29,3.0,6.0,68,0.00,,,0.01,0.000000,,2013-05-01 12:31:00,
2013-05-01 04:41:00,32.0,23.0,-100.00,NNE,29,3.0,6.0,68,0.00,,,0.01,0.000000,,2013-05-01 12:41:00,
2013-05-01 04:51:00,32.0,23.0,-100.00,NNE,29,3.0,6.0,68,0.00,,,0.01,0.000000,,2013-05-01 12:51:00,
2013-05-01 05:11:00,34.0,24.0,-100.00,NNE,22,3.0,9.0,66,0.00,,,-99.99,0.000000,,2013-05-01 13:11:00,
2013-05-01 05:21:00,34.0,24.0,-100.00,NNE,22,3.0,9.0,66,0.00,,,-99.99,0.000000,,2013-05-01 13:21:00,
2013-05-01 05:31:00,34.0,24.0,-100.00,NNE,22,3.0,9.0,66,0.00,,,-99.99,0.000000,,2013-05-01 13:31:00,
2013-05-01 05:42:00,34.0,24.0,-100.00,NNE,22,3.0,9.0,66,0.00,,,-99.99,0.000000,,2013-05-01 13:42:00,
2013-05-01 05:52:00,34.0,24.0,-100.00,NNE,22,3.0,9.0,66,0.00,,,-99.99,0.000000,,2013-05-01 13:52:00,
2013-05-01 06:21:00,34.0,25.0,-100.00,NNE,18,3.0,8.0,68,0.00,,,-99.99,0.000000,,2013-05-01 14:21:00,
2013-05-01 06:31:00,34.0,25.0,-100.00,NNE,18,3.0,8.0,68,0.00,,,-99.99,0.000000,,2013-05-01 14:31:00,
2013-05-01 06:41:00,34.0,25.0,-100.00,NNE,18,3.0,8.0,68,0.00,,,-99.99,0.000000,,2013-05-01 14:41:00,
2013-05-01 06:51:00,34.0,25.0,-100.00,NNE,18,3.0,8.0,68,0.00,,,-99.99,0.000000,,2013-05-01 14:51:00,
2013-05-01 07:11:00,35.0,25.0,-100.00,NNE,25,2.0,9.0,66,0.00,,,0.01,17.000000,,2013-05-01 15:11:00,
2013-05-01 07:21:00,35.0,25.0,-100.00,NNE,25,2.0,9.0,66,0.00,,,0.01,17.000000,,2013-05-01 15:21:00,
2013-05-01 07:33:00,35.0,25.0,-100.00,NNE,25,2.0,9.0,66,0.00,,,0.01,17.000000,,2013-05-01 15:33:00,
2013-05-01 07:42:00,35.0,25.0,-100.00,NNE,25,2.0,9.0,66,0.00,,,0.01,17.000000,,2013-05-01 15:42:00,
2013-05-01 07:52:00,35.0,25.0,-100.00,NNE,25,2.0,9.0,66,0.00,,,0.01,17.000000,,2013-05-01 15:52:00,
2013-05-01 08:12:00,38.0,26.0,-100.00,NNE,17,2.0,8.0,61,0.00,,,0.01,67.000000,,2013-05-01 16:12:00,
2013-05-01 08:22:00,38.0,26.0,-100.00,NNE,17,2.0,8.0,61,0.00,,,0.01,67.000000,,2013-05-01 16:22:00,
2013-05-01 08:31:00,38.0,26.0,-100.00,NNE,17,2.0,8.0,61,0.00,,,0.01,67.000000,,2013-05-01 16:31:00,
2013-05-01 08:42:00,38.0,26.0,-100.00,NNE,17,2.0,8.0,61,0.00,,,0.01,67.000000,,2013-05-01 16:42:00,
2013-05-01 08:52:00,38.0,26.0,-100.00,NNE,17,2.0,8.0,61,0.00,,,0.01,67.000000,,2013-05-01 16:52:00,
2013-05-01 09:21:00,40.0,25.0,-100.00,NNE,17,2.0,8.0,54,0.00,,,0.01,105.000000,,2013-05-01 17:21:00,
2013-05-01 09:31:00,40.0,25.0,-100.00,NNE,17,2.0,8.0,54,0.00,,,0.01,105.000000,,2013-05-01 17:31:00,
2013-05-01 09:42:00,40.0,25.0,-100.00,NNE,17,2.0,8.0,54,0.00,,,0.01,105.000000,,2013-05-01 17:42:00,
2013-05-01 09:52:00,40.0,25.0,-100.00,NNE,17,2.0,8.0,54,0.00,,,0.01,105.000000,,2013-05-01 17:52:00,
2013-05-01 10:11:00,40.0,28.0,-100.00,NNW,334,2.0,7.0,63,0.00,,,0.01,161.000000,,2013-05-01 18:11:00,
2013-05-01 10:22:00,40.0,28.0,-100.00,NNW,334,2.0,7.0,63,0.00,,,0.01,161.000000,,2013-05-01 18:22:00,
2013-05-01 10:32:00,40.0,28.0,-100.00,NNW,334,2.0,7.0,63,0.00,,,0.01,161.000000,,2013-05-01 18:32:00,
2013-05-01 10:41:00,40.0,28.0,-100.00,NNW,334,2.0,7.0,63,0.00,,,0.01,161.000000,,2013-05-01 18:41:00,
2013-05-01 10:52:00,40.0,28.0,-100.00,NNW,334,2.0,7.0,63,0.00,,,0.01,161.000000,,2013-05-01 18:52:00,
2013-05-01 11:11:00,45.0,30.0,-100.00,North,1,5.0,10.0,56,0.00,,,0.01,511.000000,,2013-05-01 19:11:00,
2013-05-01 11:22:00,45.0,30.0,-100.00,North,1,5.0,10.0,56,0.00,,,0.01,511.000000,,2013-05-01 19:22:00,
2013-05-01 11:32:00,45.0,30.0,-100.00,North,1,5.0,10.0,56,0.00,,,0.01,511.000000,,2013-05-01 19:32:00,
2013-05-01 11:42:00,45.0,30.0,-100.00,North,1,5.0,10.0,56,0.00,,,0.01,511.000000,,2013-05-01 19:42:00,
2013-05-01 11:52:00,45.0,30.0,-100.00,North,1,5.0,10.0,56,0.00,,,0.01,511.000000,,2013-05-01 19:52:00,
2013-05-01 12:21:00,49.0,31.0,-100.00,NW,321,4.0,11.0,49,0.00,,,0.01,709.000000,,2013-05-01 20:21:00,
2013-05-01 12:32:00,49.0,31.0,-100.00,NW,321,4.0,11.0,49,0.00,,,0.01,709.000000,,2013-05-01 20:32:00,
2013-05-01 12:42:00,49.0,31.0,-100.00,NW,321,4.0,11.0,49,0.00,,,0.01,709.000000,,2013-05-01 20:42:00,
2013-05-01 12:52:00,49.0,31.0,-100.00,NW,321,4.0,11.0,49,0.00,,,0.01,709.000000,,2013-05-01 20:52:00,
2013-05-01 13:22:00,48.0,25.0,-100.00,North,3,6.0,14.0,41,0.00,,,0.01,737.000000,,2013-05-01 21:22:00,
2013-05-01 13:32:00,48.0,25.0,-100.00,North,3,6.0,14.0,41,0.00,,,0.01,737.000000,,2013-05-01 21:32:00,
2013-05-01 13:43:00,48.0,25.0,-100.00,North,3,6.0,14.0,41,0.00,,,0.01,737.000000,,2013-05-01 21:43:00,
2013-05-01 13:52:00,48.0,25.0,-100.00,North,3,6.0,14.0,41,0.00,,,0.01,737.000000,,2013-05-01 21:52:00,
2013-05-01 14:12:00,50.0,25.0,-100.00,North,358,4.0,12.0,38,0.00,,,0.01,766.000000,,2013-05-01 22:12:00,
2013-05-01 14:23:00,50.0,25.0,-100.00,North,358,4.0,12.0,38,0.00,,,0.01,766.000000,,2013-05-01 22:23:00,
2013-05-01 14:33:00,50.0,25.0,-100.00,North,358,4.0,12.0,38,0.00,,,0.01,766.000000,,2013-05-01 22:33:00,
2013-05-01 14:42:00,50.0,25.0,-100.00,North,358,4.0,12.0,38,0.00,,,0.01,766.000000,,2013-05-01 22:42:00,
2013-05-01 14:52:00,50.0,25.0,-100.00,North,358,4.0,12.0,38,0.00,,,0.01,766.000000,,2013-05-01 22:52:00,
2013-05-01 15:11:00,47.0,20.0,-100.00,NNW,338,4.0,12.0,34,0.00,,,0.01,628.000000,,2013-05-01 23:11:00,
2013-05-01 15:21:00,47.0,20.0,-100.00,NNW,338,4.0,12.0,34,0.00,,,0.01,628.000000,,2013-05-01 23:21:00,
2013-05-01 15:32:00,47.0,20.0,-100.00,NNW,338,4.0,12.0,34,0.00,,,0.01,628.000000,,2013-05-01 23:32:00,
2013-05-01 15:42:00,47.0,20.0,-100.00,NNW,338,4.0,12.0,34,0.00,,,0.01,628.000000,,2013-05-01 23:42:00,
2013-05-01 15:52:00,47.0,20.0,-100.00,NNW,338,4.0,12.0,34,0.00,,,0.01,628.000000,,2013-05-01 23:52:00,
2013-05-01 16:21:00,49.0,25.0,-100.00,NNW,341,5.0,13.0,39,0.00,,,0.00,505.000000,,2013-05-02 00:21:00,
2013-05-01 16:32:00,49.0,25.0,-100.00,NNW,341,5.0,13.0,39,0.00,,,0.00,505.000000,,2013-05-02 00:32:00,
2013-05-01 16:41:00,49.0,25.0,-100.00,NNW,341,5.0,13.0,39,0.00,,,0.00,505.000000,,2013-05-02 00:41:00,
2013-05-01 16:52:00,49.0,25.0,-100.00,NNW,341,5.0,13.0,39,0.00,,,0.00,505.000000,,2013-05-02 00:52:00,
2013-05-01 17:11:00,51.0,25.0,-100.00,NNW,348,4.0,11.0,36,0.00,,,0.00,621.000000,,2013-05-02 01:11:00,
2013-05-01 17:21:00,51.0,25.0,-100.00,NNW,348,4.0,11.0,36,0.00,,,0.00,621.000000,,2013-05-02 01:21:00,
2013-05-01 17:32:00,51.0,25.0,-100.00,NNW,348,4.0,11.0,36,0.00,,,0.00,621.000000,,2013-05-02 01:32:00,
2013-05-01 17:42:00,51.0,25.0,-100.00,NNW,348,4.0,11.0,36,0.00,,,0.00,621.000000,,2013-05-02 01:42:00,
2013-05-01 17:52:00,51.0,25.0,-100.00,NNW,348,4.0,11.0,36,0.00,,,0.00,621.000000,,2013-05-02 01:52:00,
2013-05-01 18:11:00,51.0,24.0,-100.00,NW,308,3.0,8.0,34,0.00,,,0.00,540.000000,,2013-05-02 02:11:00,
2013-05-01 18:21:00,51.0,24.0,-100.00,NW,308,3.0,8.0,34,0.00,,,0.00,540.000000,,2013-05-02 02:21:00,
2013-05-01 18:32:00,51.0,24.0,-100.00,NW,308,3.0,8.0,34,0.00,,,0.00,540.000000,,2013-05-02 02:32:00,
2013-05-01 18:42:00,51.0,24.0,-100.00,NW,308,3.0,8.0,34,0.00,,,0.00,540.000000,,2013-05-02 02:42:00,
2013-05-01 18:51:00,51.0,24.0,-100.00,NW,308,3.0,8.0,34,0.00,,,0.00,540.000000,,2013-05-02 02:51:00,
2013-05-01 19:11:00,49.0,22.0,-100.00,WSW,246,2.0,10.0,34,0.00,,,0.00,442.000000,,2013-05-02 03:11:00,
2013-05-01 19:22:00,49.0,22.0,-100.00,WSW,246,2.0,10.0,34,0.00,,,0.00,442.000000,,2013-05-02 03:22:00,
2013-05-01 19:32:00,49.0,22.0,-100.00,WSW,246,2.0,10.0,34,0.00,,,0.00,442.000000,,2013-05-02 03:32:00,
2013-05-01 19:42:00,49.0,22.0,-100.00,WSW,246,2.0,10.0,34,0.00,,,0.00,442.000000,,2013-05-02 03:42:00,
2013-05-01 19:52:00,49.0,22.0,-100.00,WSW,246,2.0,10.0,34,0.00,,,0.00,442.000000,,2013-05-02 03:52:00,
2013-05-01 20:23:00,46.0,23.0,-100.00,WNW,290,1.0,6.0,40,0.00,,,0.00,152.000000,,2013-05-02 04:23:00,
2013-05-01 20:33:00,46.0,23.0,-100.00,WNW,290,1.0,6.0,40,0.00,,,0.00,152.000000,,2013-05-02 04:33:00,
2013-05-01 20:42:00,46.0,23.0,-100.00,WNW,290,1.0,6.0,40,0.00,,,0.00,152.000000,,2013-05-02 04:42:00,
2013-05-01 20:52:00,46.0,23.0,-100.00,WNW,290,1.0,6.0,40,0.00,,,0.00,152.000000,,2013-05-02 04:52:00,
2013-05-01 21:12:00,43.0,24.0,-100.00,WNW,298,2.0,8.0,46,0.00,,,0.00,89.000000,,2013-05-02 05:12:00,
2013-05-01 21:22:00,43.0,24.0,-100.00,WNW,298,2.0,8.0,46,0.00,,,0.00,89.000000,,2013-05-02 05:22:00,
2013-05-01 21:32:00,43.0,24.0,-100.00,WNW,298,2.0,8.0,46,0.00,,,0.00,89.000000,,2013-05-02 05:32:00,
2013-05-01 21:42:00,43.0,24.0,-100.00,WNW,298,2.0,8.0,46,0.00,,,0.00,89.000000,,2013-05-02 05:42:00,
2013-05-01 21:51:00,43.0,24.0,-100.00,WNW,298,2.0,8.0,46,0.00,,,0.00,89.000000,,2013-05-02 05:51:00,
2013-05-01 22:12:00,40.0,24.0,-100.00,NW,315,1.0,6.0,53,0.00,,,0.00,21.000000,,2013-05-02 06:12:00,
2013-05-01 22:21:00,40.0,24.0,-100.00,NW,315,1.0,6.0,53,0.00,,,0.00,21.000000,,2013-05-02 06:21:00,
2013-05-01 22:31:00,40.0,24.0,-100.00,NW,315,1.0,6.0,53,0.00,,,0.00,21.000000,,2013-05-02 06:31:00,
2013-05-01 22:42:00,40.0,24.0,-100.00,NW,315,1.0,6.0,53,0.00,,,0.00,21.000000,,2013-05-02 06:42:00,
2013-05-01 22:51:00,40.0,24.0,-100.00,NW,315,1.0,6.0,53,0.00,,,0.00,21.000000,,2013-05-02 06:51:00,
2013-05-01 23:11:00,37.0,25.0,-100.00,ENE,73,0.0,3.0,61,0.00,,,0.00,1.000000,,2013-05-02 07:11:00,
2013-05-01 23:21:00,37.0,25.0,-100.00,ENE,73,0.0,3.0,61,0.00,,,0.00,1.000000,,2013-05-02 07:21:00,
2013-05-01 23:31:00,37.0,25.0,-100.00,ENE,73,0.0,3.0,61,0.00,,,0.00,1.000000,,2013-05-02 07:31:00,
2013-05-01 23:41:00,37.0,25.0,-100.00,ENE,73,0.0,3.0,61,0.00,,,0.00,1.000000,,2013-05-02 07:41:00,
2013-05-01 23:51:00,37.0,25.0,-100.00,ENE,73,0.0,3.0,61,0.00,,,0.00,1.000000,,2013-05-02 07:51:00,